Погода в Новоалександровке

Украина / Херсонская область     46˚58′20″N   34˚24′51″E
темп.,
°C
ветер,
м/с
пор.,
м/с
влажн.,
%
обл.,
%
осадки,
мм/ч
давл.,
гПа
погр.,
м
17 января, вс
вс1723:00−8˚св1277100 0.0 101624
02:00−8˚ссв3481100 0.0 101471
05:00−8˚ссв5886100 0.0 1013244
08:00−9˚ссв6992100 0.0 1013403
11:00−9˚ссв6990100 0.0 1013403
14:00−9˚с71087100 0.0 1012427
17:00−9˚ссв5889100 0.1 1014501
20:00−10˚с5889100 0.1 1014388
18 января, пн
пн1823:00−11˚с5794100 0.4 1015318
02:00−11˚с3693100 0.7 1015273
05:00−13˚ссз2395100 0.0 101648
08:00−12˚сз2494100 0.0 1017149
11:00−10˚сз3386100 0.0 1018475
14:00−10˚зсз3383100 0.1 1017580
17:00−13˚зсз228698 0.0 101829
20:00−14˚зсз338983 0.0 101852
19 января, вт
вт1923:00−13˚з2391100 0.0 101947
02:00−13˚з3492100 0.0 101998
05:00−13˚зсз3492100 0.0 1019114
08:00−14˚зсз339283 0.0 102060
11:00−10˚зсз348515 0.0 1020496
14:00−10˚зсз458154 0.0 1019766
17:00−12˚зсз3388100 0.0 102070
20:00−12˚зсз348999 0.0 1022105
20 января, ср
ср2023:00−14˚зсз339016 0.0 102341
02:00−14˚зсз23908 0.0 102430
05:00−15˚зсз22890 0.0 102422
08:00−14˚зсз11880 0.0 102621
11:00−10˚ю11790 0.0 1027204
14:00−8˚ююз12760 0.0 1026252
17:00−10˚вюв23790 0.0 102721
20:00−10˚юв34830 0.0 102758
21 января, чт
чт2123:00−9˚юв47840 0.0 102796
02:00−8˚вюв58870 0.0 1027134
05:00−6˚вюв5109258 0.0 1025172
08:00−1˚юв6119675 0.1 1026349
11:00+1˚ююв48100100 0.0 1025314
14:00+2˚ююв3710099 0.0 1024208
17:00+1˚ююв479990 0.0 1023163
20:00+2˚ю489995 0.0 1024192